User: anonymous   Login
Location: Unspecified
(0.0000°N, 0.0000°E)
Time: 07:12:14
(UTC+00:00)
Language:

CUBEBUG 2 - Orbit

View from above orbital plane
View from above orbital plane
View from above satellite
View from above satellite

Ground track
Ground track

The orbit data is extracted from the following two-line orbital elements,

1 39440U 13066AA  18016.65570592  .00000223  00000-0  38367-4 0  9999
2 39440  97.6109  40.8245 0079777 328.4939  31.1507 14.75598178223573
Epoch (UTC): 16 January 2018 15:44:12
Eccentricity: 0.0079777
inclination: 97.6109°
perigee height: 587 km
apogee height: 699 km
right ascension of ascending node: 40.8245°
argument of perigee: 328.4939°
revolutions per day: 14.75598178
mean anomaly at epoch: 31.1507°
orbit number at epoch: 22357

The dashed part of the orbit path shows where the satellite is in the earth's shadow,  

DLR